Regional Weather Roundup
Issued by NWS Cleveland, OH

Home | Current Version | Previous Version | Text Only | Print | Product List | Glossary Off
Versions: 1 2 3 4 5 6 7 8 9 10 11 12 13 14 15 16 17 18 19 20 21 22 23 24 25 26 27 28 29 30 31 32 33 34 35 36 37 38 39 40 41 42 43 44 45 46 47 48 49 50

000
ASUS41 KCLE 180402
RWRCLE
OHIO REGIONAL WEATHER ROUNDUP
NATIONAL WEATHER SERVICE CLEVELAND, OH
1100 PM EST SAT FEB 17 2018

NOTE: "FAIR" INDICATES FEW OR NO CLOUDS BELOW 12,000 FEET WITH NO
SIGNIFICANT WEATHER AND/OR OBSTRUCTIONS TO VISIBILITY.

OHZ001>008-015>018-024>027-034-035-043-044-180500-
   NORTHWEST OHIO

CITY           SKY/WX    TMP DP  RH WIND       PRES   REMARKS
DEFIANCE       CLOUDY    33  30  88 W7        30.03R WCI  27
FINDLAY        CLOUDY    34  30  85 W16       30.01R WCI  24
TOLEDO EXPRESS LGT SNOW  32  32 100 W5        30.01S FOG     WCI  27
TOLEDO EXEC    LGT SNOW  33  31  92 W6        30.02S FOG     WCI  28
LIMA           CLOUDY    34  33  96 W22       30.03R WCI  22
$$

OHZ009>014-019>023-028>033-038-089-180500-
   NORTHEAST OHIO

CITY           SKY/WX    TMP DP  RH WIND       PRES   REMARKS
CLE-HOPKINS    FLURRIES  33  30  88 SW7       30.03R WCI  27
CLE-LAKEFRONT  CLOUDY    34  28  79 SW8       30.01R WCI  27
CUY CO. ARPT   CLOUDY    34  30  86 MISG      30.01R
LORAIN-ELYRIA  LGT SNOW  31  27  85 W6        30.01R FOG     WCI  25
ASHTABULA      CLOUDY    29  27  92 S5        29.99R FOG     WCI  24
AKRON-CANTON   LGT SNOW  32  29  88 SW6       30.00R FOG     WCI  26
WOOSTER        LGT SNOW  31  30  96 SW7       30.01R FOG     WCI  24
MANSFIELD      LGT SNOW  32  32 100 SW8       29.99S FOG     WCI  25
YOUNGSTOWN     LGT SNOW  29  28  96 S5        29.97R FOG     WCI  24
$$

OHZ042-051>053-060>062-070>072-077>081-180500-
  SOUTHWEST OHIO

CITY           SKY/WX    TMP DP  RH WIND       PRES   REMARKS
CINC-COVINGTON DRIZZLE   36  36 100 W12G20    30.12S
CINC-LUNKEN    CLOUDY    37  35  92 SW9       30.15R
HAMILTON       LGT RAIN  36  32  85 SW8       30.13R
DAYTON         CLOUDY    34  34 100 W17G24    30.08R WCI  23
WRIGHT-PAT AFB CLOUDY    35  35 100 W13       30.08R WCI  26
DAYTON GENERAL CLOUDY    37  33  85 W9        30.08S
WILMINGTON     CLOUDY    35  35 100 W20G30    30.09R WCI  24
$$

OHZ036-037-039>041-045>050-054>059-063>069-073>076-082>088-180500-
  CENTRAL AND SOUTHEAST OHIO

CITY           SKY/WX    TMP DP  RH WIND       PRES   REMARKS
COLUMBUS       LGT SNOW  34  33  96 SW7       30.05R FOG     WCI  28
OSU AIRPORT    LGT SNOW  34  34 100 SW10      30.05R FOG     WCI  26
BOLTON FIELD   NOT AVBL
RICKENBACK AFB DRIZZLE   33  33 100 SW8       30.06R WCI  26
NEWARK         CLOUDY    34  32  92 SW7       30.04R WCI  28
MARION         CLOUDY    33  31  92 SW13      30.02R FOG     WCI  24
LANCASTER      MIX PCPN  34  33  96 SW12      30.06R FOG     WCI  25
ZANESVILLE     CLOUDY    33  31  92 SW5       30.04R WCI  29
NEW PHILLY     NOT AVBL
$$




USA.gov is the U.S. government's official web portal to all federal, state and local government web resources and services.